Time,TemperatureF,DewpointF,PressureIn,WindDirection,WindDirectionDegrees,WindSpeedMPH,WindSpeedGustMPH,Humidity,HourlyPrecipIn,Conditions,Clouds,dailyrainin,SolarRadiationWatts/m^2,SoftwareType,DateUTC
2013-07-17 00:00:00,78.0,71.0,-100.00,SSW,202,2.0,-999.0,80,-99.99,,,-99.99,0.000000,,2013-07-17 05:00:00,
2013-07-17 00:43:00,78.0,71.0,-100.00,SSW,202,2.0,-999.0,80,-99.99,,,-99.99,0.000000,,2013-07-17 05:43:00,
2013-07-17 00:52:00,78.0,71.0,-100.00,SSW,202,2.0,-999.0,80,-99.99,,,-99.99,0.000000,,2013-07-17 05:52:00,
2013-07-17 01:00:00,78.0,71.0,-100.00,SW,225,2.0,-999.0,79,-99.99,,,-99.99,0.000000,,2013-07-17 06:00:00,
2013-07-17 01:43:00,78.0,71.0,-100.00,SW,225,2.0,-999.0,79,-99.99,,,-99.99,0.000000,,2013-07-17 06:43:00,
2013-07-17 01:52:00,78.0,71.0,-100.00,SW,225,2.0,-999.0,79,-99.99,,,-99.99,0.000000,,2013-07-17 06:52:00,
2013-07-17 02:00:00,77.0,72.0,-100.00,WSW,247,2.0,-999.0,83,-99.99,,,-99.99,0.000000,,2013-07-17 07:00:00,
2013-07-17 02:42:00,77.0,72.0,-100.00,WSW,247,2.0,-999.0,83,-99.99,,,-99.99,0.000000,,2013-07-17 07:42:00,
2013-07-17 02:52:00,77.0,72.0,-100.00,WSW,247,2.0,-999.0,83,-99.99,,,-99.99,0.000000,,2013-07-17 07:52:00,
2013-07-17 03:00:00,77.0,72.0,-100.00,West,270,2.0,-999.0,84,-99.99,,,-99.99,0.000000,,2013-07-17 08:00:00,
2013-07-17 03:43:00,77.0,72.0,-100.00,West,270,2.0,-999.0,84,-99.99,,,-99.99,0.000000,,2013-07-17 08:43:00,
2013-07-17 03:53:00,77.0,72.0,-100.00,West,270,2.0,-999.0,84,-99.99,,,-99.99,0.000000,,2013-07-17 08:53:00,
2013-07-17 04:00:00,77.0,73.0,-100.00,West,270,2.0,-999.0,89,-99.99,,,-99.99,0.000000,,2013-07-17 09:00:00,
2013-07-17 04:43:00,77.0,73.0,-100.00,West,270,2.0,-999.0,89,-99.99,,,-99.99,0.000000,,2013-07-17 09:43:00,
2013-07-17 04:52:00,77.0,73.0,-100.00,West,270,2.0,-999.0,89,-99.99,,,-99.99,0.000000,,2013-07-17 09:52:00,
2013-07-17 05:00:00,76.0,72.0,-100.00,West,270,2.0,-999.0,88,-99.99,,,-99.99,0.000000,,2013-07-17 10:00:00,
2013-07-17 05:43:00,76.0,72.0,-100.00,West,270,2.0,-999.0,88,-99.99,,,-99.99,0.000000,,2013-07-17 10:43:00,
2013-07-17 05:52:00,76.0,72.0,-100.00,West,270,2.0,-999.0,88,-99.99,,,-99.99,0.000000,,2013-07-17 10:52:00,
2013-07-17 06:00:00,76.0,72.0,-100.00,West,270,1.0,-999.0,87,-99.99,,,-99.99,9.280000,,2013-07-17 11:00:00,
2013-07-17 06:42:00,76.0,72.0,-100.00,West,270,1.0,-999.0,87,-99.99,,,-99.99,9.280000,,2013-07-17 11:42:00,
2013-07-17 06:52:00,76.0,72.0,-100.00,West,270,1.0,-999.0,87,-99.99,,,-99.99,9.280000,,2013-07-17 11:52:00,
2013-07-17 07:00:00,77.0,72.0,-100.00,West,270,2.0,-999.0,85,-99.99,,,-99.99,87.000000,,2013-07-17 12:00:00,
2013-07-17 07:43:00,77.0,72.0,-100.00,West,270,2.0,-999.0,85,-99.99,,,-99.99,87.000000,,2013-07-17 12:43:00,
2013-07-17 07:53:00,77.0,72.0,-100.00,West,270,2.0,-999.0,85,-99.99,,,-99.99,87.000000,,2013-07-17 12:53:00,
2013-07-17 08:00:00,80.0,72.0,-100.00,West,270,3.0,-999.0,76,-99.99,,,-99.99,279.559998,,2013-07-17 13:00:00,
2013-07-17 08:43:00,80.0,72.0,-100.00,West,270,3.0,-999.0,76,-99.99,,,-99.99,279.559998,,2013-07-17 13:43:00,
2013-07-17 08:53:00,80.0,72.0,-100.00,West,270,3.0,-999.0,76,-99.99,,,-99.99,279.559998,,2013-07-17 13:53:00,
2013-07-17 09:00:00,82.0,72.0,-100.00,West,270,4.0,-999.0,72,-99.99,,,-99.99,444.279999,,2013-07-17 14:00:00,
2013-07-17 09:43:00,82.0,72.0,-100.00,West,270,4.0,-999.0,72,-99.99,,,-99.99,444.279999,,2013-07-17 14:43:00,
2013-07-17 09:52:00,82.0,72.0,-100.00,West,270,4.0,-999.0,72,-99.99,,,-99.99,444.279999,,2013-07-17 14:52:00,
2013-07-17 10:00:00,83.0,72.0,-100.00,West,270,3.0,-999.0,68,-99.99,,,-99.99,602.039978,,2013-07-17 15:00:00,
2013-07-17 10:32:00,83.0,72.0,-100.00,West,270,3.0,-999.0,68,-99.99,,,-99.99,602.039978,,2013-07-17 15:32:00,
2013-07-17 10:43:00,83.0,72.0,-100.00,West,270,3.0,-999.0,68,-99.99,,,-99.99,602.039978,,2013-07-17 15:43:00,
2013-07-17 10:52:00,83.0,72.0,-100.00,West,270,3.0,-999.0,68,-99.99,,,-99.99,602.039978,,2013-07-17 15:52:00,
2013-07-17 12:00:00,88.0,72.0,-100.00,WSW,247,2.0,-999.0,59,-99.99,,,-99.99,720.359985,,2013-07-17 17:00:00,
2013-07-17 12:43:00,88.0,72.0,-100.00,WSW,247,2.0,-999.0,59,-99.99,,,-99.99,720.359985,,2013-07-17 17:43:00,
2013-07-17 12:52:00,88.0,72.0,-100.00,WSW,247,2.0,-999.0,59,-99.99,,,-99.99,720.359985,,2013-07-17 17:52:00,
2013-07-17 13:00:00,89.0,71.0,-100.00,West,270,3.0,-999.0,55,-99.99,,,-99.99,838.679993,,2013-07-17 18:00:00,
2013-07-17 13:43:00,89.0,71.0,-100.00,West,270,3.0,-999.0,55,-99.99,,,-99.99,838.679993,,2013-07-17 18:43:00,
2013-07-17 13:52:00,89.0,71.0,-100.00,West,270,3.0,-999.0,55,-99.99,,,-99.99,838.679993,,2013-07-17 18:52:00,
2013-07-17 14:00:00,87.0,71.0,-100.00,WNW,292,3.0,-999.0,58,0.04,,,-99.99,365.399994,,2013-07-17 19:00:00,
2013-07-17 14:43:00,87.0,71.0,-100.00,WNW,292,3.0,-999.0,58,0.04,,,-99.99,365.399994,,2013-07-17 19:43:00,
2013-07-17 14:53:00,87.0,71.0,-100.00,WNW,292,3.0,-999.0,58,0.04,,,-99.99,365.399994,,2013-07-17 19:53:00,
2013-07-17 15:00:00,76.0,72.0,-100.00,SSW,202,2.0,-999.0,88,0.05,,,-99.99,48.720001,,2013-07-17 20:00:00,
2013-07-17 15:43:00,76.0,72.0,-100.00,SSW,202,2.0,-999.0,88,0.05,,,-99.99,48.720001,,2013-07-17 20:43:00,
2013-07-17 15:53:00,76.0,72.0,-100.00,SSW,202,2.0,-999.0,88,0.05,,,-99.99,48.720001,,2013-07-17 20:53:00,
2013-07-17 16:00:00,75.0,69.0,-100.00,SSW,202,5.0,-999.0,80,-99.99,,,-99.99,73.080002,,2013-07-17 21:00:00,
2013-07-17 16:42:00,75.0,69.0,-100.00,SSW,202,5.0,-999.0,80,-99.99,,,-99.99,73.080002,,2013-07-17 21:42:00,
2013-07-17 16:53:00,75.0,69.0,-100.00,SSW,202,5.0,-999.0,80,-99.99,,,-99.99,73.080002,,2013-07-17 21:53:00,
2013-07-17 17:00:00,79.0,70.0,-100.00,SSW,202,6.0,-999.0,73,-99.99,,,-99.99,501.119995,,2013-07-17 22:00:00,
2013-07-17 17:43:00,79.0,70.0,-100.00,SSW,202,6.0,-999.0,73,-99.99,,,-99.99,501.119995,,2013-07-17 22:43:00,
2013-07-17 17:53:00,79.0,70.0,-100.00,SSW,202,6.0,-999.0,73,-99.99,,,-99.99,501.119995,,2013-07-17 22:53:00,
2013-07-17 18:00:00,85.0,71.0,-100.00,SSW,202,4.0,-999.0,64,-99.99,,,-99.99,419.920013,,2013-07-17 23:00:00,
2013-07-17 18:43:00,85.0,71.0,-100.00,SSW,202,4.0,-999.0,64,-99.99,,,-99.99,419.920013,,2013-07-17 23:43:00,
2013-07-17 18:52:00,85.0,71.0,-100.00,SSW,202,4.0,-999.0,64,-99.99,,,-99.99,419.920013,,2013-07-17 23:52:00,
2013-07-17 19:00:00,86.0,72.0,-100.00,SSW,202,4.0,-999.0,62,-99.99,,,-99.99,250.559998,,2013-07-18 00:00:00,
2013-07-17 19:43:00,86.0,72.0,-100.00,SSW,202,4.0,-999.0,62,-99.99,,,-99.99,250.559998,,2013-07-18 00:43:00,
2013-07-17 19:52:00,86.0,72.0,-100.00,SSW,202,4.0,-999.0,62,-99.99,,,-99.99,250.559998,,2013-07-18 00:52:00,
2013-07-17 20:00:00,84.0,72.0,-100.00,SSW,202,2.0,-999.0,67,-99.99,,,-99.99,90.480003,,2013-07-18 01:00:00,
2013-07-17 20:32:00,84.0,72.0,-100.00,SSW,202,2.0,-999.0,67,-99.99,,,-99.99,90.480003,,2013-07-18 01:32:00,
2013-07-17 20:43:00,84.0,72.0,-100.00,SSW,202,2.0,-999.0,67,-99.99,,,-99.99,90.480003,,2013-07-18 01:43:00,
2013-07-17 20:53:00,84.0,72.0,-100.00,SSW,202,2.0,-999.0,67,-99.99,,,-99.99,90.480003,,2013-07-18 01:53:00,
2013-07-17 21:00:00,80.0,73.0,-100.00,South,180,2.0,-999.0,79,-99.99,,,-99.99,5.800000,,2013-07-18 02:00:00,
2013-07-17 21:43:00,80.0,73.0,-100.00,South,180,2.0,-999.0,79,-99.99,,,-99.99,5.800000,,2013-07-18 02:43:00,
2013-07-17 21:52:00,80.0,73.0,-100.00,South,180,2.0,-999.0,79,-99.99,,,-99.99,5.800000,,2013-07-18 02:52:00,
2013-07-17 22:00:00,79.0,72.0,-100.00,SSW,202,3.0,-999.0,80,-99.99,,,-99.99,0.000000,,2013-07-18 03:00:00,
2013-07-17 22:43:00,79.0,72.0,-100.00,SSW,202,3.0,-999.0,80,-99.99,,,-99.99,0.000000,,2013-07-18 03:43:00,
2013-07-17 22:52:00,79.0,72.0,-100.00,SSW,202,3.0,-999.0,80,-99.99,,,-99.99,0.000000,,2013-07-18 03:52:00,
2013-07-17 23:00:00,79.0,72.0,-100.00,SW,225,3.0,-999.0,78,-99.99,,,-99.99,0.000000,,2013-07-18 04:00:00,
2013-07-17 23:43:00,79.0,72.0,-100.00,SW,225,3.0,-999.0,78,-99.99,,,-99.99,0.000000,,2013-07-18 04:43:00,
2013-07-17 23:52:00,79.0,72.0,-100.00,SW,225,3.0,-999.0,78,-99.99,,,-99.99,0.000000,,2013-07-18 04:52:00,